Volver al catálogo

STARLINK-30297

ActivoComunicacionesVLEO
NORAD 57682·PAYLOAD·🇺🇸 United States

Lanzado Aug 22, 2023 desde Vandenberg Space Force Base

Loading…

Próximos Pases (próximas 24 horas)

TLE

ActualizadoSource: CelesTrak SupGP

Época: Sep 14, 2026, 21:11 UTC

1 57682C 23124V   26257.88312500  .00025047  00000+0  74039-3 0  2579
2 57682  53.1603  47.6186 0001193  81.1113 172.0943 15.34363066    13

Sigue STARLINK-30297 en tiempo real con AllMySat

Download on the App Store